Location: North Evanston
(42.0634°N, 87.6976°W)
Time: 11:42:22
(UTC+00:00)

Vanguard 3 - Visible Passes

Search period start: 15 May 2026 00:00
Search period end: 25 May 2026 00:00
Orbit: 507 x 3205 km, 33.4° (Epoch: 14 May)

Date Brightness Start Highest point End Pass type
(mag) Time Alt. Az. Time Alt. Az. Time Alt. Az.
15 May 10.2 02:49:45 10° W 02:56:01 15° SW 03:01:02 10° SSW visible
16 May 10.1 01:21:39 10° W 01:34:33 30° SW 01:43:22 10° SSE visible
17 May 10.4 02:14:48 10° W 02:22:54 17° SW 02:29:13 10° SSW visible
19 May 10.5 01:39:52 10° W 01:49:36 19° SW 01:57:09 10° S visible
